| time (UTC) | temp C | wind direction | speed KPH | gust KPH | rain 1hr cm | rain 24hr cm | rain mn cm | humidity % | barometer mb |
| 20260506224518 | 15 | 321 | 1.6 | 16.1 | 0.08 | 0.20 | 0.05 | 91 | 1005.7 |
| 20260506224017 | 15 | 355 | 1.6 | 19.3 | 0.05 | 0.18 | 0.03 | 91 | 1005.6 |
| 20260506223517 | 15 | 53 | 3.2 | 19.3 | 0.05 | 0.18 | 0.03 | 91 | 1005.3 |
| 20260506223017 | 15 | 355 | 1.6 | 20.9 | 0.05 | 0.18 | 0.03 | 91 | 1005.3 |
| 20260506222515 | 15 | 351 | 0.0 | 20.9 | 0.05 | 0.18 | 0.03 | 91 | 1005.4 |
| 20260506222018 | 15 | 355 | 3.2 | 14.5 | 0.08 | 0.18 | 0.03 | 91 | 1005.6 |
| 20260506221514 | 15 | 11 | 0.0 | 6.4 | 0.10 | 0.18 | 0.03 | 90 | 1005.7 |
| 20260506221014 | 15 | 360 | 0.0 | 14.5 | 0.15 | 0.18 | 0.03 | 90 | 1005.7 |
| 20260506220513 | 15 | 355 | 3.2 | 14.5 | 0.18 | 0.18 | 0.03 | 90 | 1005.7 |
| 20260506220016 | 15 | 360 | 4.8 | 14.5 | 0.15 | 0.15 | 0.00 | 89 | 1005.9 |
| 20260506215515 | 15 | 302 | 4.8 | 14.5 | 0.15 | 0.15 | 0.15 | 88 | 1006.1 |
| 20260506215011 | 15 | 247 | 1.6 | 11.3 | 0.13 | 0.13 | 0.13 | 88 | 1006.3 |
| 20260506214511 | 15 | 245 | 0.0 | 11.3 | 0.13 | 0.13 | 0.13 | 88 | 1006.4 |
| 20260506214110 | 15 | 259 | 1.6 | 9.7 | 0.13 | 0.13 | 0.13 | 87 | 1006.1 |
| 20260506213509 | 15 | 340 | 0.0 | 17.7 | 0.13 | 0.13 | 0.13 | 86 | 1005.7 |
| 20260506213009 | 15 | 306 | 8.0 | 17.7 | 0.13 | 0.13 | 0.13 | 85 | 1005.7 |
| 20260506212508 | 15 | 317 | 4.8 | 24.1 | 0.13 | 0.13 | 0.13 | 84 | 1005.7 |
| 20260506212011 | 16 | 9 | 6.4 | 20.9 | 0.10 | 0.10 | 0.10 | 82 | 1005.6 |
| 20260506211508 | 16 | 278 | 6.4 | 17.7 | 0.05 | 0.05 | 0.05 | 81 | 1006.0 |
| 20260506211007 | 16 | 355 | 4.8 | 27.4 | 0.05 | 0.05 | 0.05 | 79 | 1005.7 |
| 20260506210507 | 16 | 310 | 6.4 | 43.5 | 0.00 | 0.00 | 0.00 | 77 | 1005.4 |
| 20260506210007 | 17 | 305 | 24.1 | 43.5 | 0.00 | 0.00 | 0.00 | 75 | 1005.4 |
| 20260506205505 | 17 | 272 | 22.5 | 37.0 | 0.00 | 0.00 | 0.00 | 72 | 1005.6 |
| 20260506205004 | 18 | 277 | 0.0 | 1.6 | 0.00 | 0.00 | 0.00 | 69 | 1005.1 |
| 20260506204505 | 18 | 292 | 0.0 | 0.0 | 0.00 | 0.00 | 0.00 | 66 | 1004.7 |
| 20260506204004 | 18 | 280 | 0.0 | 0.0 | 0.00 | 0.00 | 0.00 | 61 | 1004.7 |
| 20260506203502 | 18 | 5 | 0.0 | 0.0 | 0.00 | 0.00 | 0.00 | 61 | 1004.4 |
| 20260506203004 | 18 | 5 | 0.0 | 0.0 | 0.00 | 0.00 | 0.00 | 60 | 1004.2 |
| 20260506202502 | 18 | 5 | 0.0 | 0.0 | 0.00 | 0.00 | 0.00 | 60 | 1004.2 |
| 20260506202002 | 18 | 342 | 0.0 | 0.0 | 0.00 | 0.00 | 0.00 | 60 | 1004.2 |
| 20260506201509 | 18 | 344 | 0.0 | 0.0 | 0.00 | 0.00 | 0.00 | 60 | 1004.2 |
| 20260506201002 | 18 | 292 | 0.0 | 0.0 | 0.00 | 0.00 | 0.00 | 61 | 1004.5 |
| 20260506200502 | 18 | 292 | 0.0 | 0.0 | 0.00 | 0.00 | 0.00 | 60 | 1004.6 |
| 20260506200001 | 18 | 330 | 0.0 | 0.0 | 0.00 | 0.00 | 0.00 | 61 | 1004.7 |
| 20260506195501 | 18 | 330 | 0.0 | 0.0 | 0.00 | 0.00 | 0.00 | 60 | 1004.7 |
| 20260506195001 | 19 | 330 | 0.0 | 0.0 | 0.00 | 0.00 | 0.00 | 60 | 1004.7 |
| 20260506194505 | 19 | 330 | 0.0 | 0.0 | 0.00 | 0.00 | 0.00 | 58 | 1004.7 |
| 20260506194100 | 19 | 330 | 0.0 | 0.0 | 0.00 | 0.00 | 0.00 | 58 | 1004.8 |
| 20260506194000 | 19 | 330 | 0.0 | 0.0 | 0.00 | 0.00 | 0.00 | 58 | 1004.8 |
| 20260506193559 | 19 | 330 | 0.0 | 0.0 | 0.00 | 0.00 | 0.00 | 57 | 1004.9 |
| 20260506193114 | 20 | 330 | 0.0 | 0.0 | 0.00 | 0.00 | 0.00 | 58 | 1004.8 |
| 20260506192600 | 20 | 330 | 0.0 | 0.0 | 0.00 | 0.00 | 0.00 | 58 | 1004.8 |
| 20260506192100 | 20 | 330 | 0.0 | 0.0 | 0.00 | 0.00 | 0.00 | 58 | 1004.9 |
| 20260506191623 | 20 | 330 | 0.0 | 0.0 | 0.00 | 0.00 | 0.00 | 57 | 1004.8 |
| 20260506191100 | 20 | 330 | 0.0 | 0.0 | 0.00 | 0.00 | 0.00 | 57 | 1004.8 |
| 20260506185557 | 20 | 330 | 0.0 | 0.0 | 0.00 | 0.00 | 0.00 | 55 | 1004.5 |
| 20260506184617 | 20 | 330 | 0.0 | 0.0 | 0.00 | 0.00 | 0.00 | 55 | 1004.4 |
| 20260506184056 | 20 | 330 | 0.0 | 6.4 | 0.00 | 0.00 | 0.00 | 54 | 1004.3 |
| 20260506183055 | 21 | 329 | 3.2 | 9.7 | 0.00 | 0.00 | 0.00 | 53 | 1004.2 |
| 20260506182052 | 21 | 331 | 0.0 | 6.4 | 0.00 | 0.00 | 0.00 | 53 | 1004.1 |
| 20260506181552 | 21 | 331 | 3.2 | 6.4 | 0.00 | 0.00 | 0.00 | 52 | 1004.1 |
| 20260506181052 | 21 | 330 | 1.6 | 8.0 | 0.00 | 0.00 | 0.00 | 52 | 1004.1 |
| 20260506180552 | 21 | 331 | 1.6 | 8.0 | 0.00 | 0.00 | 0.00 | 51 | 1004.1 |
| 20260506180052 | 22 | 330 | 0.0 | 14.5 | 0.00 | 0.00 | 0.00 | 50 | 1004.1 |
| 20260506175552 | 22 | 330 | 0.0 | 14.5 | 0.00 | 0.00 | 0.00 | 50 | 1004.1 |
| 20260506175050 | 22 | 275 | 0.0 | 14.5 | 0.00 | 0.00 | 0.00 | 49 | 1004.0 |
| 20260506174047 | 22 | 290 | 4.8 | 17.7 | 0.00 | 0.00 | 0.00 | 48 | 1004.1 |
| 20260506173143 | 22 | 311 | 4.8 | 19.3 | 0.00 | 0.00 | 0.00 | 48 | 1004.1 |
| 20260506172543 | 23 | 277 | 8.0 | 24.1 | 0.00 | 0.00 | 0.00 | 48 | 1004.0 |
| 20260506172047 | 23 | 286 | 14.5 | 24.1 | 0.00 | 0.00 | 0.00 | 47 | 1004.1 |
| 20260506171555 | 23 | 306 | 9.7 | 24.1 | 0.00 | 0.00 | 0.00 | 47 | 1004.1 |
| 20260506170532 | 23 | 292 | 6.4 | 24.1 | 0.00 | 0.00 | 0.00 | 47 | 1004.0 |
| 20260506170030 | 23 | 245 | 4.8 | 19.3 | 0.00 | 0.00 | 0.00 | 47 | 1004.0 |
| 20260506165535 | 23 | 250 | 9.7 | 24.1 | 0.00 | 0.00 | 0.00 | 47 | 1004.0 |
| 20260506165033 | 23 | 292 | 12.9 | 24.1 | 0.00 | 0.00 | 0.00 | 47 | 1004.0 |
| 20260506163526 | 23 | 279 | 12.9 | 29.0 | 0.00 | 0.00 | 0.00 | 48 | 1004.1 |
| 20260506163028 | 23 | 267 | 19.3 | 29.0 | 0.00 | 0.00 | 0.00 | 46 | 1004.1 |
| 20260506155509 | 23 | 314 | 8.0 | 37.0 | 0.00 | 0.00 | 0.00 | 45 | 1004.3 |
| 20260506155009 | 23 | 250 | 11.3 | 37.0 | 0.00 | 0.00 | 0.00 | 45 | 1004.3 |
| 20260506154511 | 24 | 206 | 19.3 | 38.6 | 0.00 | 0.00 | 0.00 | 44 | 1004.2 |
| 20260506154009 | 24 | 265 | 19.3 | 33.8 | 0.00 | 0.00 | 0.00 | 44 | 1004.2 |
| 20260506153508 | 24 | 236 | 19.3 | 30.6 | 0.00 | 0.00 | 0.00 | 44 | 1004.2 |
| 20260506153009 | 24 | 185 | 12.9 | 41.8 | 0.00 | 0.00 | 0.00 | 44 | 1004.2 |
| 20260506152513 | 24 | 256 | 20.9 | 46.7 | 0.00 | 0.00 | 0.00 | 44 | 1004.3 |
| 20260506151508 | 24 | 248 | 19.3 | 33.8 | 0.00 | 0.00 | 0.00 | 44 | 1004.3 |
| 20260506151008 | 24 | 290 | 17.7 | 45.1 | 0.00 | 0.00 | 0.00 | 44 | 1004.3 |
| 20260506150510 | 24 | 247 | 14.5 | 45.1 | 0.00 | 0.00 | 0.00 | 45 | 1004.3 |
| 20260506150006 | 23 | 242 | 22.5 | 40.2 | 0.00 | 0.00 | 0.00 | 45 | 1004.3 |
| 20260506145506 | 23 | 290 | 22.5 | 40.2 | 0.00 | 0.00 | 0.00 | 45 | 1004.3 |
| 20260506145006 | 24 | 249 | 19.3 | 33.8 | 0.00 | 0.00 | 0.00 | 44 | 1004.3 |
| 20260506143503 | 24 | 259 | 19.3 | 40.2 | 0.00 | 0.00 | 0.00 | 44 | 1004.3 |
| 20260506143001 | 24 | 214 | 14.5 | 37.0 | 0.00 | 0.00 | 0.00 | 45 | 1004.2 |
| 20260506142501 | 24 | 207 | 14.5 | 43.5 | 0.00 | 0.00 | 0.00 | 45 | 1004.3 |
| 20260506142003 | 23 | 257 | 19.3 | 43.5 | 0.00 | 0.00 | 0.00 | 46 | 1004.3 |
| 20260506141500 | 23 | 231 | 17.7 | 41.8 | 0.00 | 0.00 | 0.00 | 46 | 1004.3 |
| 20260506141100 | 24 | 206 | 19.3 | 43.5 | 0.00 | 0.00 | 0.00 | 45 | 1004.3 |
| 20260506140600 | 23 | 259 | 16.1 | 41.8 | 0.00 | 0.00 | 0.00 | 46 | 1004.4 |
| 20260506140104 | 23 | 268 | 27.4 | 41.8 | 0.00 | 0.00 | 0.00 | 45 | 1004.4 |
| 20260506135559 | 23 | 207 | 22.5 | 45.1 | 0.00 | 0.00 | 0.00 | 46 | 1004.5 |
| 20260506135059 | 23 | 257 | 27.4 | 49.9 | 0.00 | 0.00 | 0.00 | 47 | 1004.4 |
| 20260506134600 | 23 | 244 | 19.3 | 37.0 | 0.00 | 0.00 | 0.00 | 49 | 1004.3 |
| 20260506134059 | 23 | 232 | 12.9 | 48.3 | 0.00 | 0.00 | 0.00 | 49 | 1004.3 |
| 20260506133558 | 23 | 198 | 24.1 | 48.3 | 0.00 | 0.00 | 0.00 | 47 | 1004.4 |
| 20260506133058 | 24 | 236 | 19.3 | 48.3 | 0.00 | 0.00 | 0.00 | 47 | 1004.4 |
| 20260506132557 | 23 | 202 | 16.1 | 54.7 | 0.00 | 0.00 | 0.00 | 50 | 1004.3 |
| 20260506132102 | 23 | 210 | 29.0 | 54.7 | 0.00 | 0.00 | 0.00 | 48 | 1004.3 |
| 20260506131100 | 24 | 248 | 20.9 | 61.2 | 0.00 | 0.00 | 0.00 | 48 | 1004.3 |
| 20260506130556 | 23 | 276 | 19.3 | 46.7 | 0.00 | 0.00 | 0.00 | 48 | 1004.3 |
| 20260506130057 | 23 | 250 | 19.3 | 46.7 | 0.00 | 0.00 | 0.00 | 49 | 1004.3 |
| 20260506125554 | 23 | 265 | 17.7 | 43.5 | 0.00 | 0.00 | 0.00 | 51 | 1004.4 |
| 20260506125054 | 22 | 243 | 19.3 | 35.4 | 0.00 | 0.00 | 0.00 | 51 | 1004.4 |
| 20260506124554 | 22 | 225 | 17.7 | 41.8 | 0.00 | 0.00 | 0.00 | 52 | 1004.4 |
| 20260506124054 | 22 | 211 | 20.9 | 41.8 | 0.00 | 0.00 | 0.00 | 51 | 1004.3 |
| 20260506123554 | 23 | 149 | 14.5 | 41.8 | 0.00 | 0.00 | 0.00 | 51 | 1004.4 |
| 20260506123055 | 22 | 257 | 20.9 | 45.1 | 0.00 | 0.00 | 0.00 | 51 | 1004.5 |
| 20260506122553 | 22 | 233 | 25.7 | 41.8 | 0.00 | 0.00 | 0.00 | 51 | 1004.5 |
| 20260506122052 | 23 | 227 | 16.1 | 41.8 | 0.00 | 0.00 | 0.00 | 52 | 1004.4 |
| 20260506121557 | 22 | 202 | 19.3 | 40.2 | 0.00 | 0.00 | 0.00 | 53 | 1004.4 |
| 20260506121053 | 22 | 274 | 20.9 | 49.9 | 0.00 | 0.00 | 0.00 | 53 | 1004.5 |
| 20260506120552 | 23 | 222 | 27.4 | 49.9 | 0.00 | 0.00 | 0.00 | 51 | 1004.4 |
| 20260506120053 | 23 | 254 | 12.9 | 35.4 | 0.00 | 0.00 | 0.00 | 54 | 1004.3 |
| 20260506115549 | 22 | 227 | 19.3 | 45.1 | 0.00 | 0.00 | 0.00 | 54 | 1004.4 |
| 20260506115048 | 22 | 231 | 16.1 | 51.5 | 0.00 | 0.00 | 0.00 | 54 | 1004.4 |
| 20260506114553 | 22 | 203 | 16.1 | 51.5 | 0.00 | 0.00 | 0.00 | 56 | 1004.5 |
| 20260506114048 | 22 | 277 | 20.9 | 43.5 | 0.00 | 0.00 | 0.00 | 56 | 1004.5 |
| 20260506113547 | 22 | 270 | 16.1 | 51.5 | 0.00 | 0.00 | 0.00 | 56 | 1004.5 |
| 20260506113046 | 22 | 270 | 27.4 | 51.5 | 0.00 | 0.00 | 0.00 | 55 | 1004.5 |
| 20260506112549 | 22 | 209 | 17.7 | 43.5 | 0.00 | 0.00 | 0.00 | 55 | 1004.5 |
| 20260506112045 | 22 | 254 | 16.1 | 46.7 | 0.00 | 0.00 | 0.00 | 56 | 1004.4 |
| 20260506111547 | 22 | 262 | 19.3 | 41.8 | 0.00 | 0.00 | 0.00 | 55 | 1004.4 |
| 20260506111048 | 22 | 250 | 14.5 | 33.8 | 0.00 | 0.00 | 0.00 | 56 | 1004.4 |
| 20260506110544 | 22 | 218 | 22.5 | 40.2 | 0.00 | 0.00 | 0.00 | 55 | 1004.5 |
| 20260506110043 | 22 | 252 | 20.9 | 43.5 | 0.00 | 0.00 | 0.00 | 56 | 1004.4 |
| 20260506105543 | 22 | 260 | 19.3 | 43.5 | 0.00 | 0.00 | 0.00 | 55 | 1004.5 |
| 20260506105043 | 22 | 276 | 16.1 | 41.8 | 0.00 | 0.00 | 0.00 | 54 | 1004.4 |
| 20260506104545 | 22 | 277 | 20.9 | 41.8 | 0.00 | 0.00 | 0.00 | 54 | 1004.4 |
| 20260506104043 | 21 | 249 | 9.7 | 27.4 | 0.00 | 0.00 | 0.00 | 56 | 1004.3 |
| 20260506103541 | 21 | 277 | 12.9 | 38.6 | 0.00 | 0.00 | 0.00 | 58 | 1004.4 |
| 20260506103041 | 21 | 251 | 19.3 | 38.6 | 0.00 | 0.00 | 0.00 | 57 | 1004.4 |
| 20260506102541 | 21 | 216 | 17.7 | 48.3 | 0.00 | 0.00 | 0.00 | 56 | 1004.4 |
| 20260506102041 | 21 | 213 | 22.5 | 48.3 | 0.00 | 0.00 | 0.00 | 55 | 1004.4 |
| 20260506101544 | 22 | 220 | 24.1 | 38.6 | 0.00 | 0.00 | 0.00 | 54 | 1004.3 |
| 20260506101140 | 22 | 198 | 14.5 | 43.5 | 0.00 | 0.00 | 0.00 | 55 | 1004.2 |
| 20260506100540 | 21 | 221 | 16.1 | 46.7 | 0.00 | 0.00 | 0.00 | 55 | 1004.2 |
| 20260506100046 | 21 | 205 | 17.7 | 46.7 | 0.00 | 0.00 | 0.00 | 55 | 1004.2 |
| 20260506095541 | 22 | 212 | 16.1 | 37.0 | 0.00 | 0.00 | 0.00 | 55 | 1004.3 |
| 20260506095040 | 21 | 247 | 19.3 | 37.0 | 0.00 | 0.00 | 0.00 | 57 | 1004.3 |
| 20260506094539 | 21 | 267 | 19.3 | 43.5 | 0.00 | 0.00 | 0.00 | 56 | 1004.1 |
| 20260506094038 | 21 | 219 | 17.7 | 43.5 | 0.00 | 0.00 | 0.00 | 56 | 1004.2 |
| 20260506093539 | 21 | 257 | 24.1 | 46.7 | 0.00 | 0.00 | 0.00 | 55 | 1004.2 |
| 20260506093037 | 22 | 192 | 19.3 | 38.6 | 0.00 | 0.00 | 0.00 | 55 | 1004.2 |
| 20260506092536 | 21 | 244 | 16.1 | 41.8 | 0.00 | 0.00 | 0.00 | 57 | 1004.0 |
| 20260506092040 | 21 | 249 | 22.5 | 49.9 | 0.00 | 0.00 | 0.00 | 56 | 1004.1 |
| 20260506091534 | 21 | 284 | 19.3 | 46.7 | 0.00 | 0.00 | 0.00 | 58 | 1004.0 |
| 20260506091034 | 21 | 250 | 22.5 | 40.2 | 0.00 | 0.00 | 0.00 | 59 | 1004.0 |
| 20260506090532 | 21 | 294 | 19.3 | 49.9 | 0.00 | 0.00 | 0.00 | 58 | 1003.9 |
| 20260506090033 | 21 | 261 | 20.9 | 49.9 | 0.00 | 0.00 | 0.00 | 57 | 1004.0 |
| 20260506085531 | 21 | 198 | 16.1 | 40.2 | 0.00 | 0.00 | 0.00 | 59 | 1004.0 |
| 20260506085030 | 20 | 215 | 17.7 | 38.6 | 0.00 | 0.00 | 0.00 | 60 | 1003.9 |
| 20260506084534 | 20 | 202 | 22.5 | 38.6 | 0.00 | 0.00 | 0.00 | 59 | 1004.0 |
| 20260506084030 | 20 | 206 | 24.1 | 45.1 | 0.00 | 0.00 | 0.00 | 59 | 1004.0 |
| 20260506083530 | 20 | 229 | 19.3 | 49.9 | 0.00 | 0.00 | 0.00 | 58 | 1004.0 |
| 20260506083029 | 20 | 217 | 20.9 | 49.9 | 0.00 | 0.00 | 0.00 | 60 | 1004.0 |
| 20260506082528 | 20 | 204 | 25.7 | 38.6 | 0.00 | 0.00 | 0.00 | 59 | 1004.0 |
| 20260506082027 | 20 | 300 | 19.3 | 46.7 | 0.00 | 0.00 | 0.00 | 60 | 1003.9 |
| 20260506081528 | 20 | 210 | 19.3 | 45.1 | 0.00 | 0.00 | 0.00 | 60 | 1003.9 |
| 20260506081027 | 20 | 216 | 14.5 | 45.1 | 0.00 | 0.00 | 0.00 | 61 | 1003.8 |
| 20260506080626 | 20 | 221 | 27.4 | 45.1 | 0.00 | 0.00 | 0.00 | 61 | 1003.8 |
| 20260506073521 | 18 | 246 | 16.1 | 46.7 | 0.00 | 0.00 | 0.00 | 64 | 1003.8 |
| 20260506073021 | 18 | 199 | 25.7 | 46.7 | 0.00 | 0.00 | 0.00 | 63 | 1003.7 |
| 20260506072521 | 18 | 210 | 25.7 | 49.9 | 0.00 | 0.00 | 0.00 | 62 | 1003.7 |
| 20260506072020 | 19 | 219 | 12.9 | 40.2 | 0.00 | 0.00 | 0.00 | 63 | 1003.7 |
| 20260506071518 | 18 | 195 | 22.5 | 40.2 | 0.00 | 0.00 | 0.00 | 63 | 1003.6 |
| 20260506071017 | 18 | 242 | 24.1 | 37.0 | 0.00 | 0.00 | 0.00 | 63 | 1003.5 |
| 20260506070515 | 18 | 211 | 12.9 | 40.2 | 0.00 | 0.00 | 0.00 | 65 | 1003.3 |
| 20260506062509 | 17 | 226 | 17.7 | 35.4 | 0.00 | 0.00 | 0.00 | 66 | 1003.3 |
| 20260506062008 | 17 | 190 | 11.3 | 33.8 | 0.00 | 0.00 | 0.00 | 66 | 1003.4 |
| 20260506061508 | 17 | 176 | 12.9 | 33.8 | 0.00 | 0.00 | 0.00 | 67 | 1003.4 |
| 20260506061011 | 17 | 199 | 14.5 | 32.2 | 0.00 | 0.00 | 0.00 | 66 | 1003.4 |
| 20260506060508 | 17 | 183 | 11.3 | 33.8 | 0.00 | 0.00 | 0.00 | 66 | 1003.3 |
| 20260506051100 | 16 | 166 | 11.3 | 25.7 | 0.00 | 0.00 | 0.00 | 69 | 1003.4 |
| 20260506050556 | 16 | 186 | 12.9 | 25.7 | 0.00 | 0.00 | 0.00 | 69 | 1003.5 |
| 20260506045051 | 15 | 205 | 9.7 | 22.5 | 0.00 | 0.00 | 0.00 | 71 | 1003.6 |
| 20260506044550 | 15 | 201 | 4.8 | 22.5 | 0.00 | 0.00 | 0.00 | 72 | 1003.7 |
| 20260506044047 | 15 | 172 | 14.5 | 24.1 | 0.00 | 0.00 | 0.00 | 74 | 1003.7 |
| 20260506043546 | 14 | 157 | 11.3 | 24.1 | 0.00 | 0.00 | 0.00 | 77 | 1003.6 |
| 20260506043045 | 13 | 163 | 6.4 | 16.1 | 0.00 | 0.00 | 0.00 | 81 | 1003.7 |
| 20260506042544 | 13 | 169 | 4.8 | 14.5 | 0.00 | 0.00 | 0.00 | 85 | 1003.6 |
| 20260506042045 | 13 | 195 | 3.2 | 16.1 | 0.00 | 0.00 | 0.00 | 88 | 1003.7 |
| 20260506041542 | 12 | 146 | 0.0 | 14.5 | 0.00 | 0.00 | 0.00 | 90 | 1003.7 |
| 20260506041039 | 12 | 161 | 3.2 | 14.5 | 0.00 | 0.00 | 0.00 | 91 | 1003.7 |
| 20260506040538 | 12 | 152 | 1.6 | 8.0 | 0.00 | 0.00 | 0.00 | 92 | 1003.7 |
| 20260506040037 | 12 | 123 | 0.0 | 3.2 | 0.00 | 0.00 | 0.00 | 92 | 1003.7 |
| 20260506035637 | 11 | 73 | 0.0 | 3.2 | 0.00 | 0.00 | 0.00 | 92 | 1003.8 |
| 20260506035036 | 11 | 73 | 0.0 | 0.0 | 0.00 | 0.00 | 0.00 | 92 | 1003.8 |
| 20260506034539 | 11 | 73 | 0.0 | 0.0 | 0.00 | 0.00 | 0.00 | 92 | 1003.8 |
| 20260506034034 | 11 | 73 | 0.0 | 0.0 | 0.00 | 0.00 | 0.00 | 92 | 1003.7 |
| 20260506033534 | 11 | 73 | 0.0 | 0.0 | 0.00 | 0.00 | 0.00 | 92 | 1003.8 |
| 20260506033037 | 11 | 73 | 0.0 | 0.0 | 0.00 | 0.00 | 0.00 | 92 | 1003.8 |
| 20260506032532 | 11 | 73 | 0.0 | 0.0 | 0.00 | 0.00 | 0.00 | 92 | 1003.9 |
| 20260506032032 | 11 | 73 | 0.0 | 0.0 | 0.00 | 0.00 | 0.00 | 92 | 1003.9 |
| 20260506031535 | 11 | 73 | 0.0 | 0.0 | 0.00 | 0.00 | 0.00 | 92 | 1003.9 |
| 20260506031031 | 11 | 73 | 0.0 | 0.0 | 0.00 | 0.00 | 0.00 | 92 | 1003.9 |
| 20260506030532 | 11 | 73 | 0.0 | 0.0 | 0.00 | 0.00 | 0.00 | 92 | 1004.0 |
| 20260506030053 | 11 | 73 | 0.0 | 0.0 | 0.00 | 0.00 | 0.00 | 92 | 1004.0 |
| 20260506025530 | 11 | 73 | 0.0 | 0.0 | 0.00 | 0.00 | 0.00 | 92 | 1004.0 |
| 20260506025033 | 11 | 73 | 0.0 | 0.0 | 0.00 | 0.00 | 0.00 | 92 | 1003.9 |
| 20260506024532 | 11 | 73 | 0.0 | 0.0 | 0.00 | 0.00 | 0.00 | 92 | 1004.0 |
| 20260506024031 | 11 | 73 | 0.0 | 0.0 | 0.00 | 0.00 | 0.00 | 92 | 1004.0 |
| 20260506023529 | 11 | 73 | 0.0 | 6.4 | 0.00 | 0.00 | 0.00 | 91 | 1004.0 |
| 20260506023028 | 11 | 73 | 0.0 | 6.4 | 0.00 | 0.00 | 0.00 | 91 | 1004.0 |
| 20260506022529 | 11 | 53 | 0.0 | 0.0 | 0.00 | 0.00 | 0.00 | 91 | 1004.1 |
| 20260506022028 | 11 | 53 | 0.0 | 0.0 | 0.00 | 0.00 | 0.00 | 91 | 1004.1 |
| 20260506021527 | 11 | 53 | 0.0 | 0.0 | 0.00 | 0.00 | 0.00 | 91 | 1004.1 |
| 20260506021029 | 12 | 53 | 0.0 | 0.0 | 0.00 | 0.00 | 0.00 | 91 | 1004.1 |
| 20260506020529 | 12 | 53 | 0.0 | 0.0 | 0.00 | 0.00 | 0.00 | 91 | 1004.1 |
| 20260506020026 | 12 | 53 | 0.0 | 0.0 | 0.00 | 0.00 | 0.00 | 91 | 1004.1 |
| 20260506015525 | 12 | 53 | 0.0 | 0.0 | 0.00 | 0.00 | 0.00 | 91 | 1004.2 |
| 20260506014525 | 12 | 53 | 0.0 | 0.0 | 0.00 | 0.00 | 0.00 | 91 | 1004.2 |
| 20260506014023 | 12 | 53 | 0.0 | 0.0 | 0.00 | 0.00 | 0.00 | 90 | 1004.2 |
| 20260506013524 | 12 | 53 | 0.0 | 0.0 | 0.00 | 0.00 | 0.00 | 90 | 1004.2 |
| 20260506013022 | 12 | 53 | 0.0 | 0.0 | 0.00 | 0.00 | 0.00 | 91 | 1004.1 |
| 20260506012522 | 12 | 53 | 0.0 | 0.0 | 0.00 | 0.00 | 0.00 | 90 | 1004.1 |
| 20260506012020 | 12 | 53 | 0.0 | 1.6 | 0.00 | 0.00 | 0.00 | 90 | 1004.2 |
| 20260506011529 | 12 | 53 | 0.0 | 6.4 | 0.00 | 0.00 | 0.00 | 90 | 1004.2 |
| 20260506011022 | 12 | 53 | 1.6 | 6.4 | 0.00 | 0.00 | 0.00 | 90 | 1004.2 |
| 20260506010518 | 12 | 123 | 0.0 | 0.0 | 0.00 | 0.00 | 0.00 | 90 | 1004.3 |
| 20260506010019 | 12 | 123 | 0.0 | 0.0 | 0.00 | 0.00 | 0.00 | 90 | 1004.3 |
| 20260506005517 | 12 | 123 | 0.0 | 9.7 | 0.00 | 0.00 | 0.00 | 90 | 1004.4 |
| 20260506005017 | 13 | 93 | 0.0 | 9.7 | 0.00 | 0.00 | 0.00 | 90 | 1004.4 |
| 20260506004532 | 12 | 84 | 0.0 | 9.7 | 0.00 | 0.00 | 0.00 | 90 | 1004.4 |
| 20260506004017 | 12 | 83 | 0.0 | 9.7 | 0.00 | 0.00 | 0.00 | 90 | 1004.3 |
| 20260506003517 | 12 | 65 | 0.0 | 0.0 | 0.00 | 0.00 | 0.00 | 89 | 1004.3 |
| 20260506003022 | 13 | 65 | 0.0 | 3.2 | 0.00 | 0.00 | 0.00 | 89 | 1004.4 |
| 20260506002516 | 13 | 65 | 0.0 | 3.2 | 0.00 | 0.00 | 0.00 | 89 | 1004.4 |
| 20260506002019 | 13 | 65 | 0.0 | 3.2 | 0.00 | 0.00 | 0.00 | 89 | 1004.4 |
| 20260506001515 | 13 | 65 | 0.0 | 3.2 | 0.00 | 0.00 | 0.00 | 89 | 1004.4 |
| 20260506001014 | 13 | 53 | 0.0 | 3.2 | 0.00 | 0.00 | 0.00 | 88 | 1004.4 |
| 20260506000516 | 13 | 47 | 0.0 | 4.8 | 0.00 | 0.00 | 0.00 | 88 | 1004.5 |
| 20260506000017 | 13 | 47 | 0.0 | 4.8 | 0.00 | 0.00 | 0.00 | 88 | 1004.5 |
| 20260505235511 | 13 | 62 | 0.0 | 8.0 | 0.00 | 0.00 | 0.00 | 88 | 1004.5 |
| 20260505235013 | 13 | 62 | 0.0 | 9.7 | 0.00 | 0.00 | 0.00 | 88 | 1004.5 |
| 20260505234009 | 13 | 67 | 0.0 | 4.8 | 0.00 | 0.00 | 0.00 | 87 | 1004.6 |
| 20260505233512 | 13 | 68 | 0.0 | 4.8 | 0.00 | 0.00 | 0.00 | 87 | 1004.6 |
| 20260505233009 | 13 | 50 | 0.0 | 3.2 | 0.00 | 0.00 | 0.00 | 87 | 1004.6 |
| 20260505232510 | 13 | 34 | 0.0 | 8.0 | 0.00 | 0.00 | 0.00 | 87 | 1004.7 |
| 20260505232007 | 13 | 65 | 0.0 | 0.0 | 0.00 | 0.00 | 0.00 | 87 | 1004.7 |
| 20260505231507 | 13 | 61 | 0.0 | 1.6 | 0.00 | 0.00 | 0.00 | 86 | 1004.9 |
| 20260505231010 | 13 | 54 | 0.0 | 3.2 | 0.00 | 0.00 | 0.00 | 86 | 1004.9 |
| 20260505230505 | 14 | 70 | 0.0 | 3.2 | 0.00 | 0.00 | 0.00 | 86 | 1004.9 |
| 20260505230004 | 14 | 37 | 0.0 | 9.7 | 0.00 | 0.00 | 0.00 | 86 | 1004.9 |
| 20260505225504 | 14 | 37 | 1.6 | 9.7 | 0.00 | 0.00 | 0.00 | 85 | 1005.0 |
| 20260505225003 | 14 | 52 | 0.0 | 6.4 | 0.00 | 0.00 | 0.00 | 85 | 1004.9 |